Regional Weather Roundup
Issued by NWS

Home | Current Version | Previous Version | Graphics & Text | Print | Product List | Glossary Off
Versions: 1 2 3 4 5 6 7 8 9 10 11 12 13 14 15 16 17 18 19 20 21 22 23 24 25 26 27 28 29 30 31 32 33 34 35 36 37 38 39 40 41 42 43 44 45 46 47 48 49 50

000
ASUS43 KMKX 300107
RWRWI

WISCONSIN REGIONAL WEATHER ROUNDUP
NATIONAL WEATHER SERVICE MILWAUKEE/SULLIVAN WI
800 PM CDT FRI MAY 29 2015

NOTE: "FAIR" INDICATES FEW OR NO CLOUDS BELOW 12,000 FEET WITH NO
SIGNIFICANT WEATHER AND/OR OBSTRUCTIONS TO VISIBILITY.

WIZ001-002-006>008-014>016-023>028-300200-
NORTHWEST WISCONSIN

CITY           SKY/WX    TMP DP  RH WIND       PRES   REMARKS
SUPERIOR ARPT  CLOUDY    55  48  75 N12       30.01R
ASHLAND        CLOUDY    57  55  93 N16       29.99R
HAYWARD        LGT RAIN  58  55  90 N10       29.96S
SIREN          LGT RAIN  55  54  94 N9        29.98R
CUMBERLAND     CLOUDY    59  55  88 N13       29.94R
RICE LAKE      CLOUDY    61  57  87 N14       29.94R
CHETEK         CLOUDY    62  61  96 N8G16     29.92R
LADYSMITH      LGT RAIN  63  62  96 N12       29.92F
EAU CLAIRE     CLOUDY    65  61  87 NE7       29.90R
MENOMONIE      CLOUDY    65  63  93 N5        29.91R
NEW RICHMOND   RAIN      61  60  97 N13G21    29.94R
OSCEOLA        RAIN      58  58 100 N14G21    29.98R
$$

WIZ003>005-009-010-017-018-300200-
NORTH CENTRAL WISCONSIN

CITY           SKY/WX    TMP DP  RH WIND       PRES   REMARKS
MANITOWISH WTR LGT RAIN  56  56 100 N8        29.95R
ARBOR VITAE    LGT RAIN  59  57  93 N10       29.94R
WOODRUFF       LGT RAIN  59  57  93 N10       29.94R
RHINELANDER    LGT RAIN  61  59  93 N5        29.93S FOG
EAGLE RIVER    RAIN      60  60 100 N5        29.93R
LAND O LAKES   LGT RAIN  60  58  93 N13G20    29.94S
PHILLIPS       LGT RAIN  60  58  94 N10G18    29.93R
TOMAHAWK       LGT RAIN  61  59  94 N3        29.93S
MEDFORD        RAIN      62  61  96 N8        29.91S
MERRILL        RAIN      66  64  94 N8        29.92R
$$

WIZ029-030-035-036-043>047-300200-
CENTRAL WISCONSIN

CITY           SKY/WX    TMP DP  RH WIND       PRES   REMARKS
WAUSAU         LGT RAIN  66  65  96 NW3       29.88F
MOSINEE        CLOUDY    64  64 100 W5        29.90F
MARSHFIELD     RAIN      66  64  93 CALM      29.90R FOG
STEVENS POINT  CLOUDY    64  63  97 NW5       29.89F
WAUPACA        CLOUDY    69  63  81 NW12      29.87R
WAUTOMA        NOT AVBL
WISC RAPIDS    RAIN      65  62  90 N5        29.90R
CAMP DOUGLAS   HVY RAIN  66  66 100 NW6       29.89R FOG
$$

WIZ011>013-019>022-031-037>040-048>050-300200-
NORTHEAST WISCONSIN

CITY           SKY/WX    TMP DP  RH WIND       PRES   REMARKS
ANTIGO         LGT RAIN  63  62  97 NW3       29.90F
SHAWANO        CLOUDY    67  64  90 NW10      29.88R VSB 3/4
OCONTO         MOCLDY    71  67  86 SW3       29.84R
STURGEON BAY   MOCLDY    66  61  82 S8        29.87S
GREEN BAY      MOCLDY    74  67  78 VRB3      29.85S
MANITOWOC      NOT AVBL
APPLETON       MOCLDY    73  64  73 SW7       29.86S
CLINTONVILLE   HVY RAIN  64  63  94 NW12G29   29.88R
OSHKOSH        CLOUDY    73  66  78 S6        29.85S
$$

WIZ032>034-041-042-053>061-300200-
SOUTHWEST WISCONSIN

CITY           SKY/WX    TMP DP  RH WIND       PRES   REMARKS
LA CROSSE      LGT RAIN  68  64  87 N5        29.88R
SPARTA         CLOUDY    66  63  90 CALM      29.90S
VIROQUA        CLOUDY    67  67 100 W7        29.90R
BOSCOBEL       CLOUDY    73  62  68 VRB3      29.88R
PRAIRIE DU CHI CLOUDY    72  61  70 NW5       29.87R
PLATTEVILLE    CLOUDY    73  69  88 S5        29.90R
$$

WIZ056-057-062-063-064-067-068-300200-
SOUTH CENTRAL WISCONSIN

CITY           SKY/WX    TMP DP  RH WIND       PRES   REMARKS
REEDSBURG      CLOUDY    74  66  74 SW3       29.86S
BARABOO/DELLS  CLOUDY    73  64  74 SW3       29.87R
LONE ROCK      NOT AVBL
MINERAL POINT  MOCLDY    73  68  83 S5        29.89S
MADISON        MOCLDY    74  64  71 SW6       29.88R
MIDDLETON      MOCLDY    74  64  70 SW8       29.89R
WATERTOWN      MOCLDY   N/A N/A N/A SW6       29.88R
MONROE         MOCLDY    70  66  88 S5        29.90S
JANESVILLE     MOCLDY    73  66  78 SW6       29.90
$$

WIZ051-052-058>065-066-070>072-300200-
SOUTHEAST WISCONSIN

CITY           SKY/WX    TMP DP  RH WIND       PRES   REMARKS
MILWAUKEE      MOCLDY    73  67  81 S7        29.89R
WAUKESHA       NOT AVBL
MILWAUKEE/TIMM NOT AVBL
RACINE         PTCLDY    68  63  84 CALM      29.91S
BURLINGTON     MOCLDY    71  65  81 SW6       29.90R
KENOSHA        PTCLDY    74  66  76 SW7       29.90S
FOND DU LAC    CLOUDY    70  67  90 S6        29.87R
SHEBOYGAN      CLOUDY    70  66  87 S8        29.86F
WEST BEND      MOCLDY    70  66  88 SW6       29.88S
JUNEAU         CLOUDY    69  65  88 SE5       29.89S
$$

LSZ147-162-300200-
LAKE SUPERIOR

STATION/POSITION TIME  TEMP    WIND        PRES    WAVE
                       AIR SEA DIR/SP/G            HT/PER
                 (UTC) (F)     (DEG/KT/KT) (MB)    (FT/S)
W MID LAKE BUOY  2350   43 37  330/  8/  8   N/A     1
DEVILS ISLAND    0000   51     330/ 13/ 14   N/A
PORT WING        0040   47     340/ 11/ 13   N/A
SAXON HARBOR     0040   55        CALM       N/A
$$

LMZ867-665-643>646-300200-
LAKE MICHIGAN

STATION/POSITION TIME  TEMP    WIND        PRES    WAVE
                       AIR SEA DIR/SP/G            HT/PER
                 (UTC) (F)     (DEG/KT/KT) (MB)    (FT/S)
CHAMBERS ISLAND  0000   68     220/  5/  9   N/A
N MID LAKE BUOY  2350   44 37  190/ 12/ 14   N/A     1/ 4
NORTHPORT PIER   0000   54     140/  8/  9   N/A
SISTER BAY       2318   72     190/ 16/ 19   N/A
ALGOMA LAKESHORE 0008          210/ 13/ 15   N/A
KEWAUNEE LAKESHO 0000   51     180/ 11/ 13   N/A
SHEBOYGAN LAKESH 0000   61     210/  5/  5   N/A
PORT WASHINGTON  0000   58      CALM  /  2   N/A
ATWATER BUOY     0000   57     190/  4/  6   N/A
MILWAUKEE LAKESH 0000   57     150/ 14/ 15   N/A
S MID LAKE BUOY  2350   50 38  160/ 10/ 12   N/A     0
$$

TC  - TEMPERATURE IN CELSIUS
VSB - VISIBILITY IN STATUTE MILES
WCI - WIND CHILL INDEX
HX  - HEAT INDEX



USA.gov is the U.S. government's official web portal to all federal, state and local government web resources and services.